Time,TemperatureF,DewpointF,PressureIn,WindDirection,WindDirectionDegrees,WindSpeedMPH,WindSpeedGustMPH,Humidity,HourlyPrecipIn,Conditions,Clouds,dailyrainin,SoftwareType,DateUTC
2013-10-26 00:03:00,39.0,27.0,30.19,SSW,210,9.0,-999.0,60,-99.99,,,-99.99,,2013-10-26 05:03:00,
2013-10-26 00:13:00,39.0,27.0,30.19,SSW,210,9.0,-999.0,60,-99.99,,,-99.99,,2013-10-26 05:13:00,
2013-10-26 00:23:00,39.0,27.0,30.18,SSW,210,8.0,-999.0,60,-99.99,,,-99.99,,2013-10-26 05:23:00,
2013-10-26 00:52:00,39.0,28.0,30.18,SSW,200,7.0,-999.0,64,-99.99,,,-99.99,,2013-10-26 05:52:00,
2013-10-26 01:02:00,39.0,28.0,30.18,SSW,200,7.0,-999.0,64,-99.99,,,-99.99,,2013-10-26 06:02:00,
2013-10-26 01:12:00,39.0,28.0,30.18,SSW,200,7.0,-999.0,64,-99.99,,,-99.99,,2013-10-26 06:12:00,
2013-10-26 01:22:00,39.0,28.0,30.17,SSW,200,9.0,-999.0,64,-99.99,,,-99.99,,2013-10-26 06:22:00,
2013-10-26 01:32:00,39.0,28.0,30.17,SSW,200,9.0,-999.0,64,-99.99,,,-99.99,,2013-10-26 06:32:00,
2013-10-26 01:52:00,41.0,28.0,30.17,SSW,210,9.0,-999.0,60,-99.99,,,-99.99,,2013-10-26 06:52:00,
2013-10-26 02:02:00,41.0,28.0,30.17,SSW,210,9.0,-999.0,60,-99.99,,,-99.99,,2013-10-26 07:02:00,
2013-10-26 02:11:00,41.0,28.0,30.17,SSW,210,9.0,-999.0,60,-99.99,,,-99.99,,2013-10-26 07:11:00,
2013-10-26 02:22:00,43.0,28.0,30.15,SSW,210,13.0,17.0,56,-99.99,,,-99.99,,2013-10-26 07:22:00,
2013-10-26 02:52:00,43.0,30.0,30.14,SW,220,13.0,21.0,60,-99.99,,,-99.99,,2013-10-26 07:52:00,
2013-10-26 03:02:00,43.0,30.0,30.14,SW,220,13.0,21.0,60,-99.99,,,-99.99,,2013-10-26 08:02:00,
2013-10-26 03:11:00,43.0,30.0,30.14,SW,220,13.0,21.0,60,-99.99,,,-99.99,,2013-10-26 08:11:00,
2013-10-26 03:22:00,45.0,30.0,30.14,SW,220,10.0,18.0,56,-99.99,,,-99.99,,2013-10-26 08:22:00,
2013-10-26 03:52:00,45.0,30.0,30.13,SSW,210,9.0,-999.0,56,-99.99,,,-99.99,,2013-10-26 08:52:00,
2013-10-26 04:02:00,45.0,30.0,30.13,SSW,210,9.0,-999.0,56,-99.99,,,-99.99,,2013-10-26 09:02:00,
2013-10-26 04:11:00,45.0,30.0,30.13,SSW,210,9.0,-999.0,56,-99.99,,,-99.99,,2013-10-26 09:11:00,
2013-10-26 04:22:00,41.0,30.0,30.12,SSW,210,7.0,-999.0,65,-99.99,,,-99.99,,2013-10-26 09:22:00,
2013-10-26 04:53:00,41.0,30.0,30.11,SSW,210,7.0,-999.0,65,-99.99,,,-99.99,,2013-10-26 09:53:00,
2013-10-26 05:03:00,41.0,30.0,30.11,SSW,210,7.0,-999.0,65,-99.99,,,-99.99,,2013-10-26 10:03:00,
2013-10-26 05:13:00,41.0,30.0,30.11,SSW,210,7.0,-999.0,65,-99.99,,,-99.99,,2013-10-26 10:13:00,
2013-10-26 05:22:00,41.0,30.0,30.10,SSW,210,9.0,-999.0,65,-99.99,,,-99.99,,2013-10-26 10:22:00,
2013-10-26 05:53:00,39.0,30.0,30.10,SSW,200,9.0,-999.0,69,-99.99,,,-99.99,,2013-10-26 10:53:00,
2013-10-26 06:03:00,39.0,30.0,30.10,SSW,200,9.0,-999.0,69,-99.99,,,-99.99,,2013-10-26 11:03:00,
2013-10-26 06:11:00,39.0,30.0,30.10,SSW,200,9.0,-999.0,69,-99.99,,,-99.99,,2013-10-26 11:11:00,
2013-10-26 06:21:00,39.0,32.0,30.09,SSW,210,9.0,-999.0,75,-99.99,,,-99.99,,2013-10-26 11:21:00,
2013-10-26 06:42:00,39.0,32.0,30.08,SSW,210,9.0,-999.0,75,-99.99,,,-99.99,,2013-10-26 11:42:00,
2013-10-26 06:52:00,39.0,32.0,30.07,SSW,210,10.0,-999.0,75,-99.99,,,-99.99,,2013-10-26 11:52:00,
2013-10-26 07:01:00,39.0,32.0,30.07,SSW,210,10.0,-999.0,75,-99.99,,,-99.99,,2013-10-26 12:01:00,
2013-10-26 07:12:00,39.0,32.0,30.07,SSW,210,10.0,-999.0,75,-99.99,,,-99.99,,2013-10-26 12:12:00,
2013-10-26 07:22:00,39.0,32.0,30.07,SW,220,9.0,-999.0,75,-99.99,,,-99.99,,2013-10-26 12:22:00,
2013-10-26 07:52:00,39.0,32.0,30.07,SW,220,12.0,-999.0,75,-99.99,,,-99.99,,2013-10-26 12:52:00,
2013-10-26 08:01:00,39.0,32.0,30.07,SW,220,12.0,-999.0,75,-99.99,,,-99.99,,2013-10-26 13:01:00,
2013-10-26 08:11:00,39.0,32.0,30.07,SW,220,12.0,-999.0,75,-99.99,,,-99.99,,2013-10-26 13:11:00,
2013-10-26 08:21:00,41.0,34.0,30.07,SW,220,10.0,-999.0,75,-99.99,,,-99.99,,2013-10-26 13:21:00,
2013-10-26 08:52:00,43.0,36.0,30.08,WSW,240,12.0,-999.0,75,-99.99,,,-99.99,,2013-10-26 13:52:00,
2013-10-26 09:01:00,43.0,36.0,30.08,WSW,240,12.0,-999.0,75,-99.99,,,-99.99,,2013-10-26 14:01:00,
2013-10-26 09:11:00,43.0,36.0,30.08,WSW,240,12.0,-999.0,75,-99.99,,,-99.99,,2013-10-26 14:11:00,
2013-10-26 09:21:00,45.0,37.0,30.09,WSW,250,12.0,-999.0,75,-99.99,,,-99.99,,2013-10-26 14:21:00,
2013-10-26 09:31:00,45.0,37.0,30.09,WSW,250,12.0,-999.0,75,-99.99,,,-99.99,,2013-10-26 14:31:00,
2013-10-26 09:52:00,46.0,37.0,30.09,WSW,250,14.0,22.0,70,-99.99,,,-99.99,,2013-10-26 14:52:00,
2013-10-26 10:02:00,46.0,37.0,30.09,WSW,250,14.0,22.0,70,-99.99,,,-99.99,,2013-10-26 15:02:00,
2013-10-26 10:12:00,46.0,37.0,30.09,WSW,250,14.0,22.0,70,-99.99,,,-99.99,,2013-10-26 15:12:00,
2013-10-26 10:23:00,50.0,39.0,30.09,West,260,17.0,21.0,66,-99.99,,,-99.99,,2013-10-26 15:23:00,
2013-10-26 10:55:00,52.0,39.0,30.09,West,270,15.0,24.0,61,-99.99,,,-99.99,,2013-10-26 15:55:00,
2013-10-26 11:05:00,52.0,39.0,30.09,West,270,15.0,24.0,61,-99.99,,,-99.99,,2013-10-26 16:05:00,
2013-10-26 11:14:00,52.0,39.0,30.09,West,270,15.0,24.0,61,-99.99,,,-99.99,,2013-10-26 16:14:00,
2013-10-26 11:24:00,54.0,41.0,30.09,West,280,12.0,18.0,62,-99.99,,,-99.99,,2013-10-26 16:24:00,
2013-10-26 11:34:00,54.0,41.0,30.09,West,280,12.0,18.0,62,-99.99,,,-99.99,,2013-10-26 16:34:00,
2013-10-26 11:44:00,54.0,41.0,30.09,West,280,12.0,18.0,62,-99.99,,,-99.99,,2013-10-26 16:44:00,
2013-10-26 11:54:00,55.0,41.0,30.10,WNW,290,12.0,23.0,58,-99.99,,,-99.99,,2013-10-26 16:54:00,
2013-10-26 12:03:00,55.0,41.0,30.10,WNW,290,12.0,23.0,58,-99.99,,,-99.99,,2013-10-26 17:03:00,
2013-10-26 12:12:00,55.0,41.0,30.10,WNW,290,12.0,23.0,58,-99.99,,,-99.99,,2013-10-26 17:12:00,
2013-10-26 12:23:00,55.0,41.0,30.10,WNW,290,12.0,23.0,58,-99.99,,,-99.99,,2013-10-26 17:23:00,
2013-10-26 12:43:00,55.0,41.0,30.10,WNW,300,12.0,-999.0,58,-99.99,,,-99.99,,2013-10-26 17:43:00,
2013-10-26 12:52:00,55.0,41.0,30.09,WNW,290,12.0,20.0,58,-99.99,,,-99.99,,2013-10-26 17:52:00,
2013-10-26 13:02:00,55.0,41.0,30.09,WNW,290,12.0,20.0,58,-99.99,,,-99.99,,2013-10-26 18:02:00,
2013-10-26 13:12:00,55.0,41.0,30.09,WNW,290,12.0,20.0,58,-99.99,,,-99.99,,2013-10-26 18:12:00,
2013-10-26 13:22:00,57.0,41.0,30.09,West,280,12.0,20.0,54,-99.99,,,-99.99,,2013-10-26 18:22:00,
2013-10-26 13:52:00,59.0,41.0,30.08,NW,310,15.0,20.0,51,-99.99,,,-99.99,,2013-10-26 18:52:00,
2013-10-26 14:01:00,59.0,41.0,30.08,NW,310,15.0,20.0,51,-99.99,,,-99.99,,2013-10-26 19:01:00,
2013-10-26 14:12:00,59.0,41.0,30.08,NW,310,15.0,20.0,51,-99.99,,,-99.99,,2013-10-26 19:12:00,
2013-10-26 14:22:00,59.0,39.0,30.07,WNW,300,15.0,18.0,47,-99.99,,,-99.99,,2013-10-26 19:22:00,
2013-10-26 14:52:00,59.0,37.0,30.07,NW,310,14.0,20.0,44,-99.99,,,-99.99,,2013-10-26 19:52:00,
2013-10-26 15:02:00,59.0,37.0,30.07,NW,310,14.0,20.0,44,-99.99,,,-99.99,,2013-10-26 20:02:00,
2013-10-26 15:12:00,59.0,37.0,30.07,NW,310,14.0,20.0,44,-99.99,,,-99.99,,2013-10-26 20:12:00,
2013-10-26 15:22:00,59.0,36.0,30.07,NW,310,13.0,17.0,41,-99.99,,,-99.99,,2013-10-26 20:22:00,
2013-10-26 15:33:00,59.0,36.0,30.07,NW,310,13.0,17.0,41,-99.99,,,-99.99,,2013-10-26 20:33:00,
2013-10-26 15:52:00,59.0,34.0,30.07,NW,310,17.0,22.0,38,-99.99,,,-99.99,,2013-10-26 20:52:00,
2013-10-26 16:02:00,59.0,34.0,30.07,NW,310,17.0,22.0,38,-99.99,,,-99.99,,2013-10-26 21:02:00,
2013-10-26 16:11:00,59.0,34.0,30.07,NW,310,17.0,22.0,38,-99.99,,,-99.99,,2013-10-26 21:11:00,
2013-10-26 16:22:00,59.0,32.0,30.08,NW,320,10.0,21.0,35,-99.99,,,-99.99,,2013-10-26 21:22:00,
2013-10-26 16:55:00,59.0,32.0,30.08,NNW,330,15.0,-999.0,35,-99.99,,,-99.99,,2013-10-26 21:55:00,
2013-10-26 17:03:00,59.0,32.0,30.08,NNW,330,15.0,-999.0,35,-99.99,,,-99.99,,2013-10-26 22:03:00,
2013-10-26 17:14:00,59.0,32.0,30.08,NNW,330,15.0,-999.0,35,-99.99,,,-99.99,,2013-10-26 22:14:00,
2013-10-26 17:24:00,55.0,30.0,30.09,NNW,340,13.0,-999.0,37,-99.99,,,-99.99,,2013-10-26 22:24:00,
2013-10-26 17:54:00,54.0,28.0,30.10,North,350,13.0,18.0,37,-99.99,,,-99.99,,2013-10-26 22:54:00,
2013-10-26 18:03:00,54.0,28.0,30.10,North,350,13.0,18.0,37,-99.99,,,-99.99,,2013-10-26 23:03:00,
2013-10-26 18:12:00,54.0,28.0,30.10,North,350,13.0,18.0,37,-99.99,,,-99.99,,2013-10-26 23:12:00,
2013-10-26 20:11:00,41.0,27.0,30.15,NW,320,3.0,-999.0,56,-99.99,,,-99.99,,2013-10-27 01:11:00,
2013-10-26 20:22:00,41.0,28.0,30.15,North,0,0.0,-999.0,60,-99.99,,,-99.99,,2013-10-27 01:22:00,
2013-10-26 20:52:00,39.0,27.0,30.17,NNW,330,5.0,-999.0,60,-99.99,,,-99.99,,2013-10-27 01:52:00,
2013-10-26 21:02:00,39.0,27.0,30.17,NNW,330,5.0,-999.0,60,-99.99,,,-99.99,,2013-10-27 02:02:00,
2013-10-26 21:12:00,39.0,27.0,30.17,NNW,330,5.0,-999.0,60,-99.99,,,-99.99,,2013-10-27 02:12:00,
2013-10-26 21:21:00,37.0,27.0,30.17,NNW,340,5.0,-999.0,64,-99.99,,,-99.99,,2013-10-27 02:21:00,
2013-10-26 21:52:00,39.0,27.0,30.17,NNW,340,3.0,-999.0,60,-99.99,,,-99.99,,2013-10-27 02:52:00,
2013-10-26 22:02:00,39.0,27.0,30.17,NNW,340,3.0,-999.0,60,-99.99,,,-99.99,,2013-10-27 03:02:00,
2013-10-26 22:11:00,39.0,27.0,30.17,NNW,340,3.0,-999.0,60,-99.99,,,-99.99,,2013-10-27 03:11:00,
2013-10-26 22:22:00,37.0,27.0,30.17,North,0,0.0,-999.0,64,-99.99,,,-99.99,,2013-10-27 03:22:00,
2013-10-26 22:55:00,36.0,27.0,30.17,NW,310,3.0,-999.0,69,-99.99,,,-99.99,,2013-10-27 03:55:00,
2013-10-26 23:02:00,-999.0,-99.9,30.17,NW,310,3.0,-999.0,-999,-99.99,,,-99.99,,2013-10-27 04:02:00,
2013-10-26 23:13:00,36.0,27.0,30.17,NW,310,3.0,-999.0,69,-99.99,,,-99.99,,2013-10-27 04:13:00,
2013-10-26 23:24:00,34.0,27.0,30.17,NW,310,3.0,-999.0,74,-99.99,,,-99.99,,2013-10-27 04:24:00,
2013-10-26 23:54:00,32.0,28.0,30.16,NNW,330,3.0,-999.0,86,-99.99,,,-99.99,,2013-10-27 04:54:00,